Weather Service Report


889 
ASUS46 KSTO 300809
RWRCA 

NORTHERN AND CENTRAL CA REGIONAL WEATHER ROUNDUP
NATIONAL WEATHER SERVICE SACRAMENTO CA 
100 AM PDT THU JUL 30 2015

NOTE: FAIR INDICATES FEW OR NO CLOUDS BELOW 12,000 FEET WITH NO
SIGNIFICANT WEATHER AND/OR OBSTRUCTIONS TO VISIBILITY.

CAZ001-003-300900-
NORTHWEST AREA
  
CITY           SKY/WX    TMP DP  RH WIND       PRES   REMARKS
CRESCENT CITY  CLEAR     64  54  69 SE8       29.94S                  
ARCATA         NOT AVBL                                               
SHELTER COVE   NOT AVBL                                               
UKIAH          CLEAR     69  45  41 CALM      29.95R                  
$$

CAZ006-505>513-300900-
BAY AREA
  
CITY           SKY/WX    TMP DP  RH WIND       PRES   REMARKS
SANTA ROSA     CLOUDY    60  57  89 S6        29.96R                  
SAN RAFAEL     N/A       64  MM  MM MISG
NAPA           CLEAR     60  57  89 W9        29.96R                  
CONCORD        CLEAR     67  53  61 W6        29.94R                  
OAKLAND CITY   N/A       62  MM  MM MISG
OAKLAND        PTCLDY    62  58  86 NW9       29.97R                  
SAN FRAN CITY  N/A       60  MM  95 MISG
SAN FRAN ARPT  PTCLDY    61  57  87 NW7       29.97R                  
LIVERMORE      CLEAR     71  53  52 W7        29.94S                  
HAYWARD        CLEAR     61  58  90 NW5       29.97R                  
REDWOOD CITY   N/A       MM  MM  MM MISG
MOFFETT ARPT   CLEAR     65  61  87 NW3       29.97S                  
SAN JOSE ARPT  CLEAR     66  60  81 CALM      29.97R                  
$$
CAZ034-037-514>518-300900-
CENTRAL COAST
  
CITY           SKY/WX    TMP DP  RH WIND       PRES   REMARKS
WATSONVILLE    CLOUDY    61  58  90 VRB3      30.00S                  
SALINAS        CLOUDY    62  58  86 NW6       29.99S                  
MONTEREY       CLOUDY    62  57  83 CALM      30.00S                  
PT PIEDRAS BLS NOT AVBL                                               
SAN LUIS OBISP CLEAR     61  58  90 NW5       29.99R                  
SANTA MARIA    MOCLDY    61  58  90 NW3       29.99S                  
$$
CAZ015-016-300900-
NORTHERN SACRAMENTO VALLEY
  
CITY           SKY/WX    TMP DP  RH WIND       PRES   REMARKS
REDDING        CLEAR     80  40  23 N3        29.89R                  
RED BLUFF      CLEAR     75  42  30 NW5       29.88R                  
OROVILLE       CLEAR     87  45  23 E7        29.88R                  
$$
CAZ016>018-300900-
SOUTHERN SACRAMENTO VALLEY
  
CITY           SKY/WX    TMP DP  RH WIND       PRES   REMARKS
AUBURN         CLEAR     82  43  24 E5        29.97S                  
BEALE AFB      CLEAR     79  42  26 SE8       29.85R                  
LINCOLN        FAIR      73  46  38 SE3       29.86S                  
MARYSVILLE     CLEAR     77  54  44 SE5       29.86R                  
SAC INTL ARPT  CLEAR     72  56  57 SE8       29.86R                  
MATHER AIRPORT NOT AVBL                                               
DOWNTOWN SAC   N/A       72  MM  MM MISG
SAC EXEC ARPT  CLEAR     69  56  62 S3        29.88R                  
VACAVILLE      CLEAR     73  53  49 SW6       29.88R                  
TRAVIS AFB     CLEAR     66  56  72 SW24G31   29.86R                  
$$
CAZ019>021-300900-
SAN JOAQUIN VALLEY
  
CITY           SKY/WX    TMP DP  RH WIND       PRES   REMARKS
STOCKTON       CLEAR     75  50  41 N8        29.88R                  
MODESTO        CLEAR     80  47  31 N6        29.87R                  
MERCED         CLEAR     78  55  44 W5        29.87R                  
LEMOORE        CLEAR     80  43  26 W3        29.88R                  
FRESNO         PTCLDY    85  52  32 NW13      29.88R                  
HANFORD        CLEAR     78  58  49 SE5       29.88R                  
PORTERVILLE    CLEAR     81  39  22 S7        29.91S                  
BAKERSFIELD    CLEAR     88  27  11 NE3       29.91R                  
$$
CAZ011-012-071-300900-
NORTHERN MOUNTAINS
  
CITY           SKY/WX    TMP DP  RH WIND       PRES   REMARKS
YREKA          CLEAR     73  31  21 NE6       30.08R                  
MOUNT SHASTA   CLEAR     56  41  57 CALM      30.14R                  
ALTURAS        CLEAR     54  32  43 S3        30.21R                  
$$
CAZ011-012-071-300900-
SIERRA NEVADA MTNS
  
CITY           SKY/WX    TMP DP  RH WIND       PRES   REMARKS
BLUE CANYON    CLEAR     75  30  19 NE5       30.28S                  
TRUCKEE        CLEAR     50  37  62 CALM      30.35R                  
TAHOE VLY ARPT CLEAR     55  38  52 CALM      30.36R                  
MAMMOTH LAKES  FAIR      57  32  38 CALM      30.41R                  
$$
  

Return to Home page


Western Regional Climate Center, wrcc@dri.edu